Flag for Spain Weather past 2 weeks in Valladolid, Spain

Now
88 °F

Passing clouds.


Feels Like: 85 °F
Forecast: 51 / 95 °F
Wind: 13 mph from Southwest

Location: Valladolid / Villanubla

Current Time: Aug 2, 2015 at 3:20:19 PM

Latest Report: Aug 2, 2015 at 3:00 PM


Visibility: N/A

Pressure: 30.04 "Hg (27.73 "Hg at 712m altitude)

Humidity: 22%

Dew point: 45 °F

Location of ValladolidLocation

Historic Weather in Valladolid — Graph

°F

Valladolid temperature yesterday

Maximum temperature yesterday: 81 °F (at 6:30 PM)
Minimum temperature yesterday: 50 °F (at 7:00 AM)
Average temperature yesterday: 69 °F

Past Weeks' High & Low Weather Summary

 TemperatureHumidityPressure
High93 °F (Jul 20, 6:00 PM)100% (Jul 28, 7:30 AM)30.15 "Hg (Jul 28, 7:30 AM)
Low50 °F (Aug 1, 7:00 AM)16% (Jul 28, 7:30 PM)29.83 "Hg (Jul 31, 3:00 PM)
Average76 °F46%30.04 "Hg
* Reported Jul 18 2:00 PM — Aug 2 2:00 PM, Valladolid, Weather by CustomWeather, © 2015

Note: Actual official high and low records may vary slightly from our data, if they occured in-between our weather recording intervals... More about our weather records

Advertising

Valladolid weather history for previous 24 hours

 ConditionsComfort  
Time TempWeatherWind HumidityBarometerVisibility
2:00 PM
Sun, Aug 2
86 °FPassing clouds.15 mph22%30.07 "HgN/A
1:30 PM86 °FPassing clouds.13 mph24%30.04 "HgN/A
1:00 PM84 °FPassing clouds.13 mph27%30.04 "HgN/A
12:30 PM82 °FPassing clouds.8 mph40%30.04 "HgN/A
12:00 PM81 °FPassing clouds.8 mph42%30.04 "HgN/A
11:30 AM79 °FPassing clouds.8 mph45%30.04 "HgN/A
11:00 AM75 °FSunny.13 mph54%30.04 "Hg10 mi
10:30 AM75 °FPassing clouds.8 mph50%30.04 "HgN/A
10:00 AM72 °FPassing clouds.7 mph57%30.04 "HgN/A
9:30 AM68 °FPassing clouds.6 mph60%30.04 "HgN/A
9:00 AM64 °FPassing clouds.3 mph68%30.04 "HgN/A
8:30 AM61 °FSunny.2 mph77%30.04 "Hg10 mi
8:00 AM57 °FClear.5 mph82%30.04 "Hg10 mi
7:30 AM55 °FClear.8 mph88%30.04 "Hg10 mi
7:00 AM55 °FClear.7 mph82%30.04 "Hg10 mi
10:00 PM
Sat, Aug 1
70 °FSunny.7 mph38%30.04 "Hg10 mi
9:30 PM73 °FPassing clouds.9 mph31%30.01 "HgN/A
9:00 PM75 °FPassing clouds.12 mph29%30.01 "HgN/A
8:30 PM77 °FPassing clouds.12 mph28%30.01 "HgN/A
8:00 PM79 °FPassing clouds.12 mph26%30.01 "HgN/A
7:30 PM81 °FSunny.2 mph26%30.01 "Hg10 mi
7:00 PM81 °FSunny.5 mph26%30.01 "Hg10 mi
6:30 PM81 °FSunny.1 mph26%30.01 "Hg10 mi
6:00 PM79 °FSunny.3 mph30%30.04 "Hg10 mi
5:30 PM79 °FSunny.3 mph30%30.04 "Hg10 mi
5:00 PM77 °FSunny.2 mph32%30.04 "Hg10 mi
4:30 PM77 °FSunny.3 mph34%30.04 "Hg10 mi
4:00 PM77 °FSunny.2 mph34%30.04 "Hg10 mi
3:30 PM75 °FSunny.5 mph39%30.04 "Hg10 mi
3:00 PM75 °FSunny.5 mph36%30.04 "Hg10 mi
Weather by CustomWeather, © 2015

See weather overviewHow to use our weather pages